Location: Tamazert
(32.6352°N, 5.2072°W)
Time: 03:44:06
(UTC+00:00)

Vanguard 1 Rocket - Pass Details

Date: 10 October 2022
Orbit: 650 x 4225 km, 34.3° (Epoch: 05 December)

Event Time Altitude Azimuth Distance (km) Brightness Sun altitude
Rises 12:27:42 0° 168° (SSE) 7,334 12.6 50.3°
Reaches altitude 10° 12:43:03 10° 132° (SE) 7,227 12.4 49.7°
Maximum altitude 12:45:07 10° 127° (SE) 7,280 12.3 49.6°
Drops below altitude 10° 12:47:12 10° 122° (ESE) 7,348 12.3 49.5°
Sets 13:03:58 0° 88° (E) 8,315 12.1 48.4°
